#timestamp,LO_Frequency,Hit,StdDev 
1509037215.3,286046994.4,N
1509037235.1,286046995.8,N
1509037236.0,286046995.8,N
1509037255.8,286046995.2,N
1509037275.7,286046995.5,N
1509037295.5,286046995.2,N
1509037315.3,286046996.4,N
1509037335.2,286046993.4,N
1509037355.9,286046992.2,N
1509037375.7,286046990.5,N
1509037395.6,286046991.0,N
1509037415.4,286046992.0,N
1509037435.2,286046993.2,N
1509037455.1,286046994.2,N
1509037456.0,286046994.2,N
1509037475.8,286046994.1,N
1509037495.6,286046994.8,N
1509037515.5,286046993.6,Y
1509037535.3,286046996.3,P
1509037555.1,286046993.9,P
1509037575.9,286046990.2,P
1509037595.7,286046993.1,Y
1509037615.6,286046996.0,P
1509037635.4,286046993.0,P
1509037655.2,286046991.6,P
1509037675.1,286046991.1,Y
1509037676.0,286046991.1,P
1509037695.8,286046999.2,N
1509037715.6,286046995.5,N
1509037735.5,286046995.9,N
1509037755.3,286046996.9,N
1509037775.1,286046997.2,N
1509037795.9,286046995.6,N
1509037815.7,286046994.9,N
1509037835.5,286046997.2,N
1509037855.4,286046996.9,N
1509037875.2,286046997.0,N
1509037895.0,286046993.9,Y
1509037896.0,286046993.9,P
1509037915.8,286046996.2,P
1509037935.6,286046993.7,P
1509037955.5,286046992.4,Y
1509037975.3,286046997.8,P
1509037995.1,286046997.5,N
1509038015.9,286046998.8,N
1509038035.7,286047000.6,N
1509038055.5,286047000.5,N
1509038075.4,286047002.0,N
1509038095.2,286047004.0,N
1509038115.0,286047002.5,N
1509038115.9,286047002.5,N
1509038135.8,286047000.2,N
1509038155.6,286047004.2,N
1509038175.4,286047000.0,N
1509038195.3,286047000.9,N
1509038215.1,286046998.4,N
1509038235.8,286046997.0,N
1509038255.7,286046999.3,N
1509038275.5,286047002.7,N
1509038295.3,286047002.1,N
1509038315.2,286047001.2,N
1509038335.0,286046998.8,N
1509038335.9,286046998.8,N
1509038355.7,286047000.3,N
1509038375.6,286046997.0,N
1509038395.4,286046994.1,N
1509038415.2,286047001.3,N
1509038435.1,286047009.2,Y
1509038436.0,286047009.2,P
1509038455.8,286047015.1,P
1509038475.7,286047018.8,P
1509038495.5,286047019.4,N
1509038515.3,286047019.3,N
1509038535.2,286047018.0,N
1509038555.9,286047020.4,Y
1509038575.7,286047006.2,P
1509038595.6,286047008.0,N
1509038615.4,286047008.4,N
1509038635.2,286047007.7,N
1509038655.1,286047012.3,Y
1509038656.0,286047012.3,P
1509038675.8,286047002.7,N
1509038695.6,286047002.2,N
1509038715.5,286047003.4,N
1509038735.3,286047006.0,N
1509038755.1,286047003.4,N
1509038775.9,286047005.8,N
1509038795.7,286047002.7,N
1509038815.5,286047001.3,N
1509038835.4,286047003.6,N
1509038855.2,286047005.1,N
1509038875.0,286047003.2,N
1509038876.0,286047003.2,N
1509038895.8,286047005.9,N
1509038915.6,286047007.0,N
1509038935.4,286047003.7,N
1509038955.3,286047002.3,N
1509038975.1,286047001.4,N
1509038995.9,286047003.7,N
1509039015.7,286047005.6,N
1509039035.5,286047007.1,N
1509039055.4,286047005.3,N
1509039075.2,286047005.2,N
1509039095.0,286047004.6,N
1509039095.9,286047004.6,N
1509039115.8,286047005.7,N
1509039135.6,286047007.3,Y
1509039155.4,286047001.6,P
1509039175.3,286047000.3,N
1509039195.1,286047002.7,N
1509039215.8,286047000.1,N
1509039235.7,286047002.8,N
1509039255.5,286047000.3,N
1509039275.3,286046999.8,N
1509039295.2,286047000.3,N
1509039315.9,286046999.8,N
1509039335.7,286046999.3,N
1509039355.6,286046995.5,N
1509039375.4,286046991.3,Y
1509039395.2,286046987.9,P
1509039415.1,286046985.7,N
1509039416.0,286046985.7,N
1509039435.8,286046984.7,N
1509039455.6,286046982.3,N
1509039475.5,286046981.5,Y
1509039495.3,286046991.7,P
1509039515.2,286046992.1,P
1509039535.9,286046992.4,P
1509039555.7,286046991.8,Y
1509039575.6,286047000.6,P
1509039595.4,286046998.9,N
1509039615.3,286046998.6,N
1509039635.1,286047000.7,N
1509039636.0,286047000.7,N
1509039655.8,286046998.5,N
1509039675.7,286046999.0,N
1509039695.5,286046999.0,N
1509039715.3,286046998.1,N
1509039735.2,286046999.3,N
1509039755.9,286046995.5,N
1509039775.7,286046996.2,N
1509039795.6,286046999.5,N
1509039815.4,286046995.9,N
1509039835.2,286046995.6,N
1509039855.1,286046998.0,N
1509039856.0,286046998.0,N
1509039875.8,286046995.5,N
1509039895.6,286046993.5,N
1509039915.5,286046993.4,N
1509039935.3,286046996.2,N
1509039955.1,286046995.0,N
1509039975.9,286046996.1,N
1509039995.7,286046993.5,N
1509040015.5,286046994.3,N
1509040035.4,286046996.4,N
1509040055.2,286046995.8,N
1509040075.0,286046995.1,N
1509040076.0,286046995.1,N
1509040095.8,286046995.3,N
1509040115.6,286046995.0,N
1509040135.5,286046995.3,N
1509040155.3,286046997.8,N
1509040175.1,286046996.6,N
1509040195.9,286046996.5,N
1509040215.7,286046991.8,Y
1509040235.5,286046999.7,P
1509040255.4,286047005.7,P
1509040275.2,286047009.6,N
1509040295.0,286047014.9,N
1509040295.9,286047014.9,N
1509040315.8,286047020.3,N
1509040335.6,286047021.0,N
1509040355.4,286047026.8,Y
1509040375.3,286047015.0,P
1509040395.1,286047014.3,P
1509040415.9,286047014.5,P
1509040435.7,286047018.4,Y
1509040455.5,286047000.1,P
1509040475.4,286047001.2,N
1509040495.2,286047000.3,N
1509040515.0,286047008.0,N
1509040515.9,286047008.0,N
1509040535.8,286047008.1,N
1509040555.6,286047006.1,N
1509040575.4,286047004.8,N
1509040595.3,286047007.8,N
1509040615.1,286047012.2,Y
1509040635.8,286047009.0,P
1509040655.7,286047008.5,P
1509040675.5,286047009.2,P
1509040695.4,286047005.9,Y
1509040715.2,286046998.0,P
1509040735.0,286046999.6,N
1509040735.9,286046999.6,N
1509040755.8,286046997.0,N
1509040775.6,286046997.8,N
1509040795.4,286046993.3,N
